Tiempo cada hora Golcza

Hoy, 25 Junio, Viernes

Tiempo Temperatura Precipitaciones Viento Presión Humedad
00:00 +18°C° 1.7 mm 2 mps 731 mmHg 95%
01:00 +18°C° 1.7 mm 2 mps 731 mmHg 96%
02:00 +18°C° 0.4 mm 1 mps 731 mmHg 96%
03:00 +18°C° 0.4 mm 1 mps 731 mmHg 96%
04:00 +18°C° 0.4 mm 1 mps 731 mmHg 96%
05:00 +19°C° 0 mm 1 mps 731 mmHg 94%
06:00 +19°C° 0 mm 2 mps 731 mmHg 91%
07:00 +20°C° 0 mm 2 mps 731 mmHg 88%
08:00 +20°C° 0.1 mm 3 mps 731 mmHg 88%
09:00 +20°C° 0.1 mm 3 mps 732 mmHg 87%
10:00 +20°C° 0.1 mm 4 mps 732 mmHg 87%
11:00 +20°C° 0.3 mm 4 mps 732 mmHg 88%
12:00 +19°C° 0.3 mm 4 mps 732 mmHg 90%
13:00 +18°C° 0.3 mm 4 mps 733 mmHg 92%
14:00 +19°C° 0 mm 4 mps 732 mmHg 87%
15:00 +20°C° 0 mm 4 mps 732 mmHg 82%
16:00 +20°C° 0 mm 4 mps 732 mmHg 77%
17:00 +20°C° 0 mm 3 mps 732 mmHg 78%
18:00 +19°C° 0 mm 2 mps 732 mmHg 80%
19:00 +19°C° 0 mm 2 mps 732 mmHg 82%
20:00 +19°C° 0 mm 1 mps 732 mmHg 85%
21:00 +18°C° 0 mm 1 mps 733 mmHg 87%
22:00 +16°C° 0 mm 1 mps 733 mmHg 90%
23:00 +16°C° 0 mm 1 mps 733 mmHg 91%

Mañana, 26 Junio, Sábado

Tiempo Temperatura Precipitaciones Viento Presión Humedad
00:00 +15°C° 0 mm 2 mps 733 mmHg 92%
01:00 +15°C° 0 mm 2 mps 733 mmHg 93%
02:00 +15°C° 0 mm 2 mps 733 mmHg 93%
03:00 +15°C° 0 mm 1 mps 733 mmHg 94%
04:00 +14°C° 0 mm 1 mps 733 mmHg 94%
05:00 +16°C° 0 mm 1 mps 733 mmHg 90%
06:00 +18°C° 0 mm 1 mps 734 mmHg 86%
07:00 +19°C° 0 mm 1 mps 734 mmHg 81%
08:00 +21°C° 0.1 mm 1 mps 734 mmHg 76%
09:00 +22°C° 0.1 mm 1 mps 734 mmHg 71%
10:00 +23°C° 0.1 mm 1 mps 734 mmHg 66%
11:00 +23°C° 0.4 mm 2 mps 734 mmHg 65%
12:00 +24°C° 0.4 mm 2 mps 734 mmHg 64%
13:00 +24°C° 0.4 mm 3 mps 733 mmHg 63%
14:00 +24°C° 0.7 mm 3 mps 733 mmHg 65%
15:00 +24°C° 0.7 mm 3 mps 733 mmHg 68%
16:00 +22°C° 0.7 mm 3 mps 733 mmHg 70%
17:00 +21°C° 0.7 mm 3 mps 733 mmHg 75%
18:00 +20°C° 0.7 mm 3 mps 733 mmHg 80%
19:00 +19°C° 0.7 mm 2 mps 733 mmHg 84%
20:00 +18°C° 0 mm 2 mps 734 mmHg 86%
21:00 +18°C° 0 mm 1 mps 734 mmHg 88%
22:00 +16°C° 0 mm 1 mps 734 mmHg 90%
23:00 +16°C° 0 mm 1 mps 734 mmHg 90%

Pasado mañana, 27 Junio, Domingo

Tiempo Temperatura Precipitaciones Viento Presión Humedad
00:00 +16°C° 0 mm 1 mps 734 mmHg 90%
01:00 +15°C° 0 mm 1 mps 734 mmHg 89%
02:00 +15°C° 0 mm 1 mps 734 mmHg 90%
03:00 +15°C° 0 mm 1 mps 734 mmHg 90%
04:00 +15°C° 0 mm 1 mps 734 mmHg 90%
05:00 +16°C° 0 mm 1 mps 734 mmHg 87%
06:00 +19°C° 0 mm 1 mps 734 mmHg 83%
07:00 +20°C° 0 mm 1 mps 734 mmHg 79%
08:00 +21°C° 0 mm 1 mps 734 mmHg 73%
09:00 +22°C° 0 mm 1 mps 735 mmHg 67%
10:00 +23°C° 0 mm 1 mps 735 mmHg 62%
11:00 +24°C° 0 mm 1 mps 734 mmHg 59%
12:00 +25°C° 0 mm 2 mps 734 mmHg 57%
13:00 +25°C° 0 mm 2 mps 734 mmHg 55%
14:00 +25°C° 0 mm 2 mps 734 mmHg 55%
15:00 +25°C° 0 mm 2 mps 734 mmHg 56%
16:00 +25°C° 0 mm 2 mps 734 mmHg 57%
17:00 +24°C° 0 mm 2 mps 734 mmHg 62%
18:00 +23°C° 0 mm 1 mps 734 mmHg 66%
19:00 +22°C° 0 mm 1 mps 734 mmHg 71%
20:00 +21°C° 0 mm 1 mps 734 mmHg 72%
21:00 +19°C° 0 mm 1 mps 734 mmHg 73%
22:00 +18°C° 0 mm 1 mps 734 mmHg 74%
23:00 +18°C° 0 mm 1 mps 734 mmHg 75%

28 Junio, Lunes

Tiempo Temperatura Precipitaciones Viento Presión Humedad
00:00 +18°C° 0 mm 1 mps 734 mmHg 77%
01:00 +16°C° 0 mm 1 mps 734 mmHg 79%
02:00 +16°C° 0 mm 1 mps 734 mmHg 80%
03:00 +16°C° 0 mm 1 mps 734 mmHg 80%
04:00 +16°C° 0 mm 1 mps 734 mmHg 81%
05:00 +18°C° 0 mm 1 mps 734 mmHg 78%
06:00 +19°C° 0 mm 1 mps 734 mmHg 75%
07:00 +21°C° 0 mm 1 mps 734 mmHg 72%
08:00 +22°C° 0 mm 1 mps 734 mmHg 68%
09:00 +23°C° 0 mm 1 mps 734 mmHg 64%
10:00 +25°C° 0 mm 1 mps 735 mmHg 59%
11:00 +25°C° 0 mm 1 mps 734 mmHg 56%
12:00 +26°C° 0 mm 1 mps 734 mmHg 53%
13:00 +27°C° 0 mm 1 mps 734 mmHg 50%
14:00 +27°C° 0 mm 1 mps 734 mmHg 50%
15:00 +27°C° 0 mm 1 mps 734 mmHg 50%
16:00 +27°C° 0 mm 1 mps 734 mmHg 50%
17:00 +26°C° 0 mm 1 mps 733 mmHg 56%
18:00 +24°C° 0 mm 1 mps 733 mmHg 62%
19:00 +23°C° 0 mm 1 mps 733 mmHg 68%
20:00 +22°C° 0 mm 1 mps 733 mmHg 70%
21:00 +21°C° 0 mm 1 mps 733 mmHg 72%
22:00 +19°C° 0 mm 1 mps 733 mmHg 74%
23:00 +19°C° 0 mm 1 mps 732 mmHg 76%

29 Junio, Martes

Tiempo Temperatura Precipitaciones Viento Presión Humedad
00:00 +18°C° 0 mm 1 mps 732 mmHg 78%
01:00 +18°C° 0 mm 1 mps 732 mmHg 80%
02:00 +18°C° 0 mm 1 mps 732 mmHg 81%
03:00 +16°C° 0 mm 1 mps 732 mmHg 82%
04:00 +16°C° 0 mm 2 mps 732 mmHg 83%
05:00 +18°C° 0 mm 2 mps 732 mmHg 79%
06:00 +19°C° 0 mm 3 mps 732 mmHg 75%
07:00 +21°C° 0 mm 3 mps 732 mmHg 72%
08:00 +22°C° 0 mm 3 mps 732 mmHg 68%
09:00 +25°C° 0 mm 4 mps 732 mmHg 64%
10:00 +26°C° 0 mm 4 mps 731 mmHg 60%
11:00 +27°C° 0 mm 3 mps 731 mmHg 58%
12:00 +28°C° 0 mm 3 mps 731 mmHg 56%
13:00 +29°C° 0 mm 2 mps 731 mmHg 54%
14:00 +29°C° 0 mm 2 mps 731 mmHg 54%
15:00 +29°C° 0 mm 2 mps 731 mmHg 54%
16:00 +29°C° 0 mm 2 mps 730 mmHg 55%
17:00 +28°C° 0 mm 2 mps 730 mmHg 61%
18:00 +26°C° 0 mm 2 mps 730 mmHg 67%
19:00 +25°C° 0 mm 2 mps 730 mmHg 74%
20:00 +24°C° 0 mm 2 mps 730 mmHg 77%
21:00 +23°C° 0 mm 2 mps 729 mmHg 80%
22:00 +21°C° 0 mm 2 mps 729 mmHg 83%
23:00 +20°C° 0 mm 2 mps 729 mmHg 85%

30 Junio, Miércoles

Tiempo Temperatura Precipitaciones Viento Presión Humedad
00:00 +20°C° 0 mm 2 mps 729 mmHg 87%
01:00 +19°C° 0 mm 2 mps 729 mmHg 89%
02:00 +19°C° 0 mm 2 mps 729 mmHg 90%
03:00 +20°C° 0 mm 1 mps 728 mmHg 90%
04:00 +20°C° 0 mm 1 mps 728 mmHg 91%
05:00 +21°C° 0 mm 1 mps 728 mmHg 86%
06:00 +23°C° 0 mm 1 mps 728 mmHg 81%
07:00 +22°C° 0 mm 0 mps 728 mmHg 77%
08:00 +26°C° 0.3 mm 1 mps 728 mmHg 72%
09:00 +27°C° 0.3 mm 1 mps 728 mmHg 68%
10:00 +29°C° 0.3 mm 1 mps 728 mmHg 63%
11:00 +29°C° 0.7 mm 2 mps 728 mmHg 62%
12:00 +29°C° 0.7 mm 3 mps 728 mmHg 62%
13:00 +29°C° 0.7 mm 3 mps 728 mmHg 61%
14:00 +28°C° 1.2 mm 3 mps 728 mmHg 66%
15:00 +27°C° 1.2 mm 3 mps 728 mmHg 71%
16:00 +26°C° 1.2 mm 4 mps 728 mmHg 76%
17:00 +24°C° 2.3 mm 3 mps 728 mmHg 81%
18:00 +22°C° 2.3 mm 3 mps 729 mmHg 85%
19:00 +20°C° 2.3 mm 2 mps 729 mmHg 90%
20:00 +20°C° 0.2 mm 2 mps 729 mmHg 91%
21:00 +19°C° 0.2 mm 2 mps 729 mmHg 92%
22:00 +19°C° 0.2 mm 2 mps 729 mmHg 93%
23:00 +18°C° 0.1 mm 2 mps 729 mmHg 94%
Mostrar más

Necesitamos Su Consentimiento

Meteoprog y nuestros Proveedores de Servicios pueden almacenar y acceder a sus datos personales como cookies, identificadores de dispositivo u otras tecnologías similares de su dispositivo y procesar dichos datos para personalizar contenido y anuncios, además de ofrecer funciones de redes sociales y analizar el tráfico.

  • Almacenar y/o acceder a información en su dispositivo

    Se puede almacenar o acceder a cookies, identificadores de dispositivo u otra información de su dispositivo para los fines anteriormente indicados.

  • Anuncios y contenido personalizados, medición de anuncios y contenido, percepciones del público, y desarrollo de productos

    Los anuncios y el contenido pueden personalizarse en base a su perfil. Se pueden añadir más datos para personalizar mejor los anuncios y contenidos. Se puede medir el rendimiento de los anuncios y contenidos. Se puede obtener la percepción sobre el público que ha visto los anuncios y contenidos. Dichos datos pueden usarse para desarrollar o mejorar la experiencia del usuario, sistemas y software.

Al hacer clic en ‘Estoy De Acuerdo’ usted permitirá el uso de las cookies, identificadores de dispositivo, balizas web u otras tecnologías similares indicadas. Su configuración puede cambiarse desde el navegador de su dispositivo.

Para ciertos fines, los intereses legítimos pueden ser considerados por encima del consentimiento. Puede leer más sobre ello en nuestra Política de Privacidad y Cookies.